Weather History for Cortez, CO

Change the Weather History Date:

Monday, November 25, 2013

  Actual Average Record
Temperature  
Mean Temperature 36 °F 33 °F  
Max Temperature 45 °F 47 °F 59 °F (2012)
Min Temperature 27 °F 19 °F -2 °F (2010)
Degree Days  
Heating Degree Days 29 32  
Month to date heating degree days 630 679  
Since 1 July heating degree days 1310 1361  
Cooling Degree Days 0 0  
Month to date cooling degree days 0 0  
Year to date cooling degree days 667 426  
Moisture  
Dew Point 30 °F    
Average Humidity 83    
Maximum Humidity 100    
Minimum Humidity 65    
Precipitation  
Precipitation T in 0.04 in 0.40 in (2001)
Month to date precipitation 1.00 1.13  
Year to date precipitation 13.32 12.55  
Sea Level Pressure  
Sea Level Pressure 30.15 in    
Wind  
Wind Speed 7 mph (WNW)    
Max Wind Speed 17 mph    
Max Gust Speed 24 mph    
Visibility 9 miles    
Events Snow    
T = Trace of Precipitation, MM = Missing Value Source: NWS Daily Summary

Daily Weather History Graph

Daily Weather History Graph

Search for Another Location

Airport:

Trip Planner

Search our weather history database for the weather conditions in past years. The results will help you decide how hot, cold, wet, or windy it might be!

Date:

Astronomy

Nov. 25, 2013 Rise Set
Actual Time 7:04 AM MST 4:58 PM MST
Civil Twilight 6:35 AM MST 5:27 PM MST
Nautical Twilight 6:03 AM MST 5:59 PM MST
Astronomical Twilight 5:32 AM MST 6:30 PM MST
Moon No Moon Rise 12:27 PM MST (11/25)
Length of Visible Light 10h 51m
Length of Day
9h 54m
Waning Gibbous, 50% of the Moon is Illuminated
Nov 25
Waning Gibbous
Nov 25
Last Quarter
Dec 2
New
Dec 9
First Quarter
Dec 17
Full

Hourly Weather History & Observations

Time (MST) Temp. Windchill Dew Point Humidity Pressure Visibility Wind Dir Wind Speed Gust Speed Precip Events Conditions
12:40 AM 30.0 °F 21.1 °F 28.9 °F 96% 30.07 in 9.0 mi WNW 10.4 mph - N/A   Overcast
12:53 AM 30.0 °F 25.2 °F 28.9 °F 96% 30.08 in 8.0 mi Variable 4.6 mph 24.2 mph N/A   Overcast
1:31 AM 30.0 °F 20.5 °F 28.9 °F 96% 30.07 in 6.0 mi WNW 11.5 mph - 0.00 in   Overcast
1:42 AM 30.0 °F 20.5 °F 30.0 °F 100% 30.06 in 7.0 mi WNW 11.5 mph 19.6 mph 0.00 in   Overcast
1:53 AM 30.0 °F 21.1 °F 30.0 °F 100% 30.09 in 5.0 mi WNW 10.4 mph - 0.00 in Snow Light Snow
2:01 AM 30.9 °F 21.2 °F 30.0 °F 96% 30.07 in 4.0 mi WNW 12.7 mph - 0.00 in Snow Light Snow
2:53 AM 30.9 °F 21.7 °F 30.0 °F 96% 30.06 in 9.0 mi WNW 11.5 mph - 0.00 in   Overcast
3:01 AM 30.9 °F 22.8 °F 30.0 °F 96% 30.05 in 10.0 mi WNW 9.2 mph - N/A   Overcast
3:32 AM 30.9 °F 21.7 °F 28.9 °F 92% 30.05 in 10.0 mi NW 11.5 mph 20.7 mph N/A   Scattered Clouds
3:53 AM 30.0 °F 21.7 °F 30.0 °F 100% 30.07 in 10.0 mi WNW 9.2 mph - N/A   Mostly Cloudy
4:08 AM 30.0 °F 22.4 °F 28.9 °F 96% 30.05 in 10.0 mi WNW 8.1 mph - N/A   Scattered Clouds
4:53 AM 30.9 °F 22.2 °F 28.9 °F 92% 30.06 in 10.0 mi WNW 10.4 mph - N/A   Clear
5:53 AM 30.0 °F 23.2 °F 28.0 °F 92% 30.08 in 10.0 mi NNW 6.9 mph - N/A   Clear
6:53 AM 30.0 °F 23.2 °F 26.1 °F 85% 30.11 in 10.0 mi WNW 6.9 mph - N/A   Clear
7:53 AM 30.9 °F 26.2 °F 27.0 °F 85% 30.15 in 10.0 mi WNW 4.6 mph - N/A   Clear
8:53 AM 34.0 °F 28.0 °F 28.0 °F 79% 30.15 in 10.0 mi NW 6.9 mph - N/A   Clear
9:53 AM 35.1 °F 32.2 °F 28.0 °F 76% 30.17 in 10.0 mi ENE 3.5 mph - N/A   Clear
10:53 AM 37.0 °F 29.3 °F 32.0 °F 82% 30.18 in 10.0 mi SSW 11.5 mph - N/A   Clear
11:53 AM 37.9 °F 29.2 °F 32.0 °F 79% 30.16 in 10.0 mi SSW 15.0 mph - N/A   Clear
12:53 PM 39.9 °F 31.4 °F 33.1 °F 77% 30.15 in 10.0 mi SSW 16.1 mph - N/A   Clear
1:53 PM 42.1 °F 34.2 °F 34.0 °F 73% 30.14 in 10.0 mi SSW 16.1 mph - N/A   Clear
2:53 PM 44.1 °F 38.1 °F 34.0 °F 68% 30.13 in 10.0 mi SSW 11.5 mph - N/A   Clear
3:53 PM 44.1 °F 39.0 °F 33.1 °F 65% 30.15 in 10.0 mi SW 9.2 mph - N/A   Clear
4:53 PM 39.0 °F 35.7 °F 33.1 °F 79% 30.19 in 10.0 mi South 4.6 mph - N/A   Clear
5:53 PM 35.1 °F 31.0 °F 32.0 °F 89% 30.22 in 10.0 mi ENE 4.6 mph - N/A   Clear
6:53 PM 32.0 °F 28.7 °F 30.0 °F 92% 30.26 in 10.0 mi East 3.5 mph - N/A   Clear
7:53 PM 30.0 °F - 28.9 °F 96% 30.27 in 10.0 mi Calm Calm - N/A   Clear
8:53 PM 28.9 °F - 28.0 °F 96% 30.29 in 10.0 mi Calm Calm - N/A   Clear
9:53 PM 30.9 °F 26.2 °F 30.0 °F 96% 30.31 in 10.0 mi WSW 4.6 mph - N/A   Clear
10:53 PM 30.0 °F - 28.9 °F 96% 30.32 in 10.0 mi Calm Calm - N/A   Clear
11:53 PM 27.0 °F 21.6 °F 26.1 °F 96% 30.34 in 10.0 mi NE 4.6 mph - N/A   Clear